Home > Weather > Granada > Past weeks

Flag for Spain Weather for the Past 2 Weeks in Granada, Spain

Now
54 °F

Passing clouds.


Feels Like: 54 °F
Forecast: 47 / 60 °F
Wind: 2 mph from North

Location: Granada / Aeropuerto

Current Time: Feb 12, 2016 at 12:34:55 AM

Latest Report: Feb 11, 2016 at 11:00 PM


Visibility: N/A

Pressure: 30.15 "Hg (27.73 "Hg at 698m altitude)

Humidity: 94%

Dew point: 52 °F

Location of GranadaLocation

Historic Weather in Granada — Graph

°F

Granada Temperature Yesterday

Maximum temperature yesterday: 59 °F (at 3:30 PM)
Minimum temperature yesterday: 54 °F (at 10:30 PM)
Average temperature yesterday: 57 °F

High & Low Weather Summary for the Past Weeks

 TemperatureHumidityPressure
High72 °F (Feb 1, 4:00 PM)100% (Jan 28, 7:00 AM)30.57 "Hg (Jan 28, 7:00 AM)
Low32 °F (Jan 28, 7:00 AM)31% (Feb 1, 4:00 PM)30.07 "Hg (Feb 11, 3:00 PM)
Average51 °F73%30.35 "Hg
* Reported Jan 27 10:00 PM — Feb 11 10:30 PM, Granada, Weather by CustomWeather, © 2016

Note: Actual official high and low records may vary slightly from our data, if they occured in-between our weather recording intervals... More about our weather records

Advertising

Granada Weather History for the Previous 24 Hours

 ConditionsComfort  
Time TempWeatherWind HumidityBarometerVisibility
10:30 PM
Thu, Feb 11
54 °FPassing clouds.8 mph94%30.15 "HgN/A
10:00 PM55 °FPassing clouds.9 mph94%30.12 "HgN/A
9:30 PM55 °FPartly cloudy.9 mph94%30.12 "HgN/A
9:00 PM57 °FPartly cloudy.10 mph88%30.12 "HgN/A
8:30 PM57 °FPartly cloudy.9 mph88%30.12 "HgN/A
8:00 PM57 °FPartly cloudy.10 mph88%30.09 "HgN/A
7:30 PM55 °FPartly cloudy.3 mph94%30.09 "HgN/A
7:00 PM57 °FPartly cloudy.3 mph88%30.09 "HgN/A
6:30 PM57 °FBroken clouds.9 mph94%30.09 "HgN/A
6:00 PM57 °FBroken clouds.13 mph94%30.09 "Hg6 mi
5:30 PM57 °FBroken clouds.14 mph94%30.09 "Hg4 mi
5:00 PM57 °FBroken clouds.12 mph94%30.07 "Hg4 mi
4:30 PM57 °FLight rain. Broken clouds.9 mph94%30.07 "Hg3 mi
4:00 PM57 °FLight rain. Broken clouds.7 mph94%30.07 "Hg3 mi
3:30 PM59 °FLight rain. Broken clouds.9 mph82%30.07 "Hg6 mi
3:00 PM57 °FBroken clouds.12 mph94%30.07 "Hg6 mi
2:30 PM57 °FLight rain. Broken clouds.13 mph94%30.09 "Hg2 mi
2:00 PM57 °FDrizzle. Broken clouds.15 mph88%30.09 "Hg2 mi
1:30 PM57 °FBroken clouds.9 mph94%30.09 "Hg4 mi
1:00 PM57 °FBroken clouds.8 mph94%30.12 "Hg4 mi
12:30 PM57 °FDrizzle. Broken clouds.12 mph94%30.12 "Hg4 mi
12:00 PM57 °FDrizzle. Broken clouds.9 mph94%30.12 "Hg4 mi
11:30 AM57 °FScattered showers. Broken clouds.12 mph88%30.12 "Hg6 mi
11:00 AM57 °FBroken clouds.12 mph88%30.12 "Hg6 mi
10:30 AM57 °FBroken clouds.12 mph94%30.12 "Hg6 mi
10:00 AM55 °FBroken clouds.10 mph100%30.09 "Hg6 mi
9:30 AM55 °FRain. Broken clouds.12 mph100%30.09 "Hg3 mi
9:00 AM55 °FRain. Broken clouds.10 mph100%30.09 "Hg3 mi
8:30 AM55 °FRain. Broken clouds.5 mph100%30.09 "Hg3 mi
8:00 AM55 °FLight rain. Partly cloudy.No wind94%30.09 "Hg5 mi
7:30 AM55 °FLight rain. Partly cloudy.2 mph94%30.09 "Hg5 mi
7:00 AM55 °FRain. Partly cloudy.1 mph94%30.09 "Hg5 mi
6:30 AM55 °FLight rain. Partly cloudy.6 mph100%30.09 "Hg5 mi
6:00 AM55 °FRain. Partly cloudy.6 mph100%30.09 "Hg2 mi
Weather by CustomWeather, © 2016

See weather overviewHow to use our weather pages